Regional Weather Roundup
Issued by NWS

Home | Current Version | Previous Version | Text Only | Print | Product List | Glossary Off
Versions: 1 2 3 4 5 6 7 8 9 10 11 12 13 14 15 16 17 18 19 20 21 22 23 24 25 26 27 28 29 30 31 32 33 34 35 36 37 38 39 40 41 42 43 44 45 46 47 48 49 50

000
ASUS43 KLOT 271310
RWRIL

ILLINOIS REGIONAL WEATHER ROUNDUP
NATIONAL WEATHER SERVICE CHICAGO/ROMEOVILLE IL
700 AM CST SAT DEC 27 2014

NOTE: "FAIR" INDICATES FEW OR NO CLOUDS BELOW 12,000 FEET WITH NO
SIGNIFICANT WEATHER AND/OR OBSTRUCTIONS TO VISIBILITY.

* THESE STATIONS ARE NOT UNDER NWS QUALITY CONTROL. THEY ALSO MAY NOT
  REPORT WEATHER SUCH AS PRECIPITATION OR FOG.

ILZ001-002-007-009-015-016-024-271400-
NORTHWEST ILLINOIS

CITY           SKY/WX    TMP DP  RH WIND       PRES   REMARKS
MOLINE         CLOUDY    42  39  89 W22       29.97R
STERLING*      CLOUDY    48  45  87 SW6       29.93R
SAVANNA*       RAIN      46  43  89 SW16      29.92R
$$

ILZ003-004-008-010-011-017-018-271400-
NORTH CENTRAL ILLINOIS

CITY           SKY/WX    TMP DP  RH WIND       PRES   REMARKS
ROCKFORD       LGT RAIN  48  45  89 S14       29.92S
FREEPORT*      DRIZZLE   47  46  96 S16G25    29.90F
ROCHELLE*      CLOUDY    46  45  96 S16       29.93F
DE KALB*       CLOUDY    44  43  97 S15       29.94F FOG
PERU*          CLOUDY    48  46  91 S14       29.97S
$$

ILZ005-006-012>014-019>023-271400-
NORTHEAST ILLINOIS

CITY           SKY/WX    TMP DP  RH WIND       PRES   REMARKS
CHICAGO-OHARE  CLOUDY    46  44  93 S14       29.96R
CHICAGO-MIDWAY CLOUDY    48  45  89 S12       29.98S
AURORA         CLOUDY    47  43  86 S15       29.97R FOG
LANSING*       CLOUDY    46  45  97 SW15      30.01R
JOLIET*        CLOUDY    46  44  93 SW12G18   29.99R
WAUKEGAN       CLOUDY    46  44  93 S14       29.93S
DUPAGE AIRPORT CLOUDY    46  44  93 S13       29.96R
KANKAKEE*      CLOUDY    46  45  97 S14G21    30.03S FOG
WHEELING       CLOUDY    47  44  90 S14       29.97S
MORRIS*        CLOUDY    47  46  98 SW16G23   29.98R
ROMEOVILLE*    CLOUDY    46  46  99 SW17G24   29.98R
NORTHERLY ISL    N/A     46  43  89 S14         N/A
$$

LMZ740>746-271400-
SOUTHERN LAKE MICHIGAN

STATION/POSITION SKY/WX   TEMP    WIND        PRES    VSBY  WAVE
                          AIR SEA DIR/SP/G                  HT/PER
                          (F)     (DEG/KT/KT) (MB)    (MI)  (FT/S)
WAUKEGAN HARBOR            46     210/ 16/ 22   N/A
HARRISON CRIB              45     200/ 21/ 26   N/A
BURNHAM HARBOR             46     190/ 15/ 16   N/A
CALUMET HARBOR             46     190/  9/ 16 1014.3F
MICHIGAN CITY              45     170/ 15/ 18   N/A
$$

ILZ025>027-034>036-040-047-049-050-058-095>099-271400-
WEST-CENTRAL ILLINOIS

CITY           SKY/WX    TMP DP  RH WIND       PRES   REMARKS
QUINCY         CLOUDY    43  38  82 W16       30.05R
GALESBURG*     CLOUDY    43  40  90 W16G24    29.99R
MACOMB*        CLOUDY    44  42  95 W18G24    30.02R
JACKSONVILLE*  CLOUDY    50  48  92 S8        30.03R
PITTSFIELD*    CLOUDY    48  44  84 W15G21    30.05R
$$

ILZ028>032-037-038-041>044-048-051>054-059>061-271400-
CENTRAL ILLINOIS

CITY           SKY/WX    TMP DP  RH WIND       PRES   REMARKS
PONTIAC        CLOUDY    47  47  98 S15       30.01S FOG
BLOOMINGTON    CLOUDY    46  46 100 S16       30.02F FOG
DECATUR        CLOUDY    47  45  93 S13       30.07R
PEORIA         CLOUDY    50  45  83 S12       29.99S
LACON*         CLOUDY    47  45  90 SW13      29.97R
LINCOLN*       CLOUDY    47  46  94 S15       30.02S FOG
SPRINGFIELD    CLOUDY    48  46  93 S12       30.04R
TAYLORVILLE    CLOUDY    45  45 100 S14       30.06S
$$

ILZ033-039-045-046-055>057-062-063-271400-
EAST-CENTRAL ILLINOIS

CITY           SKY/WX    TMP DP  RH WIND       PRES   REMARKS
CHAMPAIGN      CLOUDY    46  44  93 S13       30.07R FOG
DANVILLE*      CLOUDY    45  44  97 SW14      30.06R FOG
RANTOUL*       CLOUDY    47  46  97 SW13      30.06S FOG
MATTOON        CLOUDY    45  44  97 S10       30.09R
PARIS*         CLOUDY    45  44  99 S12       30.11R
$$

ILZ079-100>102-271400-
SOUTHWEST ILLINOIS

CITY           SKY/WX    TMP DP  RH WIND       PRES   REMARKS
ALTON          CLOUDY    46  45  93 S9        30.08R
BELLEVILLE     CLOUDY    47  47  99 S8        30.08S
CAHOKIA*       MOCLDY    47  45  93 SE5       30.07F
SPARTA*        CLOUDY    46  45  97 S10       30.11S
$$

ILZ064>066-069>071-074>076-080>082-084>086-088>090-092>094-271400-
SOUTH-CENTRAL ILLINOIS

CITY           SKY/WX    TMP DP  RH WIND       PRES   REMARKS
CARBONDALE     CLOUDY    48  46  93 S9        30.13R
CAIRO*         CLOUDY   N/A N/A N/A SE5       30.15S
EFFINGHAM*     CLOUDY    46  44  90 S6        30.13R
MARION         CLOUDY    48  46  93 S8        30.15R
MT. VERNON     CLOUDY    46  43  87 S8        30.13S
CENTRALIA*     CLOUDY    47  44  90 S9        30.11S
SALEM*         CLOUDY    49  46  92 S8        30.12R
METROPOLIS*    CLOUDY    47  47 100 SE3       30.16R FOG
$$

ILZ067-068-072-073-078-083-087-091-271400-
SOUTHEAST ILLINOIS

CITY           SKY/WX    TMP DP  RH WIND       PRES   REMARKS
LAWRENCEVILLE  CLOUDY    44  44 100 S10       30.14R FOG
FLORA*         CLOUDY    46  45  97 S9        30.13R
FAIRFIELD*     CLOUDY    46  45  97 S6        30.12S
HARRISBURG*    CLOUDY    47  47 100 SW5       30.16R
ROBINSON*      CLOUDY    44  43  97 S10       30.14R FOG
CARMI*         CLOUDY    47  47 100 S6        30.14R
$$

ABBREVIATIONS USED IN REMARKS
   TC - TEMPERATURE IN CELSIUS
  WCI - WIND CHILL INDEX
   HX - HEAT INDEX
  VSB - VISIBILITY
$$



USA.gov is the U.S. government's official web portal to all federal, state and local government web resources and services.